This demonstration page uses our WeatherBlox Daily Observations layout. Learn more.

Left ArrowRight Arrow

41.86663, -103.66717

Hourly Observations for June 29, 2020

Temp ( °F °C ) Dew Point ( °F °C ) Humidity (%) Winds ( mph kmh ) Pressure ( in mb ) Visibility ( mi km ) Precip ( " mm )
12:53 am 00:53 Clear 67 19.4 58 14.4 73 73 ESE 10 17 29.40 996 10 16 0.00 0.00
1:53 am 01:53 Clear 65 18.3 59 15 81 81 ESE 7 11 29.39 995 10 16 0.00 0.00
2:53 am 02:53 Clear 65 18.3 60 15.6 84 84 E 7 11 29.37 995 10 16 0.00 0.00
3:53 am 03:53 Clear 66 18.9 61 16.1 84 84 E 8 13 29.37 995 10 16 0.00 0.00
4:53 am 04:53 Clear 64 17.8 60 15.6 87 87 ESE 6 9 29.40 996 10 16 0.00 0.00
5:53 am 05:53 Sunny 61 16.1 59 15 93 93 undefined N/A 29.44 997 10 16 0.00 0.00
6:53 am 06:53 Sunny 67 19.4 62 16.7 84 84 ESE 8 13 29.44 997 10 16 0.00 0.00
7:53 am 07:53 Sunny 71 21.7 62 16.7 73 73 SE 12 19 29.44 997 10 16 0.00 0.00
8:53 am 08:53 Sunny 75 23.9 63 17.2 66 66 SE 5 7 29.46 998 10 16 0.00 0.00
9:53 am 09:53 Sunny 80 26.7 60 15.6 51 51 ESE 7 11 29.45 997 10 16 0.00 0.00
10:53 am 10:53 Sunny 84 28.9 61 16.1 46 46 SE 8 13 29.45 997 10 16 0.00 0.00
11:53 am 11:53 Sunny 88 31.1 58 14.4 36 36 VRB 6 9 29.44 997 10 16 0.00 0.00
12:53 pm 12:53 Sunny 94 34.4 51 10.6 23 23 undefined N/A 29.43 997 10 16 0.00 0.00
1:53 pm 13:53 Sunny 95 35 40 4.4 15 15 W 8 13 29.42 996 10 16 0.00 0.00
2:53 pm 14:53 Sunny 98 36.7 43 6.1 15 15 VRB 7 11 29.42 996 10 16 0.00 0.00
3:53 pm 15:53 Sunny 92 33.3 58 14.4 32 32 SE 12 19 29.44 997 10 16 0.00 0.00
4:53 pm 16:53 Sunny 94 34.4 53 11.7 25 25 ESE 9 15 29.43 997 10 16 0.00 0.00
5:53 pm 17:53 Sunny 92 33.3 48 8.9 22 22 E 8 13 29.43 997 10 16 0.00 0.00
6:53 pm 18:53 Sunny 88 31.1 56 13.3 34 34 E 7 11 29.41 996 10 16 0.00 0.00
7:53 pm 19:53 Sunny 83 28.3 58 14.4 43 43 E 8 13 29.42 996 10 16 0.00 0.00
8:53 pm 20:53 Clear 83 28.3 65 18.3 55 55 E 9 15 29.40 996 10 16 0.00 0.00
9:53 pm 21:53 Clear 81 27.2 63 17.2 54 54 E 12 19 29.40 996 10 16 0.00 0.00
10:53 pm 22:53 Clear 80 26.7 60 15.6 51 51 ESE 10 17 29.38 995 10 16 0.00 0.00
11:53 pm 23:53 Clear 75 23.9 54 12.2 48 48 NNW 30 48 29.42 996 10 16 0.00 0.00

Powered by AerisWeather